Location: Cahas Mountain Overlook
(37.0833°N, 80.1000°W)
Time: 04:34:49
(UTC-05:00)

Vanguard 3 - Visible Passes

Search period start: 05 December 2023 00:00
Search period end: 15 December 2023 00:00
Orbit: 507 x 3241 km, 33.3° (Epoch: 04 December)

Date Brightness Start Highest point End Pass type
(mag) Time Alt. Az. Time Alt. Az. Time Alt. Az.
05 Dec 10.6 18:05:09 10° S 18:14:17 16° SE 18:21:52 10° ESE visible
05 Dec 9.8 20:14:19 10° SW 20:27:18 37° SSE 20:27:18 37° SSE visible
05 Dec 10.8 22:29:16 10° WSW 22:31:38 16° WSW 22:31:38 16° WSW visible
06 Dec 10.1 18:56:09 10° SSW 19:10:01 29° SSE 19:14:53 24° ESE visible
06 Dec 9.9 21:09:23 10° SW 21:19:13 38° SSW 21:19:13 38° SSW visible
07 Dec 10.6 17:39:44 10° S 17:51:17 20° SE 18:00:43 10° ESE visible
07 Dec 9.6 19:49:57 10° SW 20:05:42 43° SSE 20:06:48 43° SE visible
07 Dec 10.5 22:05:28 10° WSW 22:11:07 26° WSW 22:11:07 26° WSW visible
08 Dec 10.1 18:31:33 10° SSW 18:46:59 33° SSE 18:54:21 21° ESE visible
08 Dec 9.5 20:45:17 10° WSW 20:58:40 52° SSW 20:58:40 52° SSW visible
08 Dec 11.0 23:02:02 10° W 23:03:00 12° W 23:03:00 12° W visible
09 Dec 10.7 17:14:47 10° S 17:28:05 23° SE 17:39:06 10° E visible
09 Dec 9.5 19:25:40 10° SW 19:42:43 48° SSE 19:46:12 42° ESE visible
09 Dec 10.1 21:41:34 10° WSW 21:50:31 37° WSW 21:50:31 37° WSW visible
10 Dec 10.2 18:07:07 10° SSW 18:23:46 37° SSE 18:33:42 18° E visible
10 Dec 9.3 20:21:12 10° WSW 20:38:02 62° S 20:38:02 62° S visible
10 Dec 10.7 22:38:19 10° W 22:42:21 21° W 22:42:21 21° W visible
11 Dec 9.7 19:01:29 10° SW 19:19:35 52° SSE 19:25:31 36° ESE visible
11 Dec 9.7 21:17:38 10° WSW 21:29:50 51° WSW 21:29:50 51° WSW visible
12 Dec 10.4 17:42:53 10° SSW 18:00:24 41° SSE 18:12:58 13° E visible
12 Dec 9.2 19:57:09 10° WSW 20:15:26 66° SSE 20:17:17 62° SE visible
12 Dec 10.4 22:14:29 10° W 22:21:36 30° W 22:21:36 30° W visible
13 Dec 9.9 18:37:25 10° SW 18:56:15 56° SSE 19:04:43 29° E visible
13 Dec 9.4 20:53:40 10° WSW 21:09:02 66° SW 21:09:02 66° SW visible
13 Dec 11.0 23:11:24 10° W 23:13:21 15° W 23:13:21 15° W visible
14 Dec 10.5 17:18:51 10° SW 17:36:52 45° SSE 17:51:36 10° E visible
14 Dec 9.4 19:33:10 10° WSW 19:52:15 69° SSE 19:56:27 53° ESE visible
14 Dec 10.1 21:50:35 10° W 22:00:46 41° W 22:00:46 41° W visible
